Вернуться в каталог

UITMSAT

АктивенНаукаVLEO
NORAD 67686·PAYLOAD·🇯🇵 Japan

Запущен Nov 20, 1998 с Baikonur Cosmodrome

Loading…

Ближайшие Пролёты (ближайшие 24 часа)

TLE

СвежийSource: Space-Track

Эпоха: Sep 14, 2026, 04:36 UTC

1 67686U 98067YC  26257.19203161  .00194003  00000-0  84452-3 0  9991
2 67686  51.6227 196.0310 0007931 136.1816 223.9818 15.83642948 34318

Отслеживайте UITMSAT в реальном времени с AllMySat

Download on the App Store